sat.trackr.live / text

‹ back to catalog

STARLINK-5523

NORAD 56470 · 2023-064Y

PAYLOAD ACTIVE UNKNOWN

§ Identity

Operator
Country
US
Launch date
2023-05-10
Launch site
AFWTR
Launch vehicle
Mass (kg)
RCS (m²)

Purposes: comms

External: N2YO · Heavens-Above · Gunter

§ Orbital elements

Epoch: 2026-05-25T02:48:04.106880Z

Period
96.11 min
Inclination
69.9984°
Eccentricity
0.0002975
Mean motion
14.98328561 rev/d
Perigee alt
570.0 km
Apogee alt
574.1 km
Semi-major
6,950.2 km
B*
1.6807e-4
RAAN
291.9018°
Arg perigee
270.0671°
Mean anomaly
90.0148°
Rev number
16,718

§ Raw data

STARLINK-55231 56470U 23064Y   26145.11671420  .00001913  00000+0  16807-3 0  99952 56470  69.9984 291.9018 0002975 270.0671  90.0148 14.98328561167187

JSON: /api/v1/satellites/56470 · /tle

For live sub-satellite position, see the globe view (requires WebGL).

§ Visibility from observer

Set your observer location to see the next 7 days of passes ≥ 10°. The values pass through the URL so the page stays shareable.

No JS? Fill the form by hand. The geolocation button needs JavaScript.